| time (UTC) | temp F | wind direction | speed MPH | gust MPH | rain 1hr in | rain 24hr in | rain mn in | humidity % | barometer mb |
| 20260505023840 | 69 | 219 | 4.0 | 8.0 | 0.00 | 0.00 | 0.00 | 52 | 1030.4 |
| 20260505022928 | 69 | 248 | 2.0 | 4.0 | 0.00 | 0.00 | 0.00 | 52 | 1030.4 |
| 20260505021856 | 69 | 220 | 4.0 | 5.0 | 0.00 | 0.00 | 0.00 | 52 | 1030.4 |
| 20260505020834 | 69 | 243 | 4.0 | 8.0 | 0.00 | 0.00 | 0.00 | 52 | 1030.0 |
| 20260505015853 | 69 | 209 | 3.0 | 4.0 | 0.00 | 0.00 | 0.00 | 52 | 1030.0 |
| 20260505014830 | 70 | 230 | 3.0 | 7.0 | 0.00 | 0.00 | 0.00 | 52 | 1030.0 |
| 20260505013900 | 70 | 229 | 4.0 | 8.0 | 0.00 | 0.00 | 0.00 | 51 | 1029.7 |
| 20260505012827 | 70 | 227 | 4.0 | 5.0 | 0.00 | 0.00 | 0.00 | 52 | 1029.7 |
| 20260505011824 | 71 | 209 | 3.0 | 5.0 | 0.00 | 0.00 | 0.00 | 51 | 1029.7 |
| 20260505010852 | 71 | 217 | 3.0 | 7.0 | 0.00 | 0.00 | 0.00 | 50 | 1029.7 |
| 20260505005850 | 71 | 226 | 5.0 | 8.0 | 0.00 | 0.00 | 0.00 | 50 | 1029.5 |
| 20260505004818 | 72 | 216 | 3.0 | 5.0 | 0.00 | 0.00 | 0.00 | 49 | 1029.4 |
| 20260505003844 | 72 | 249 | 4.0 | 8.0 | 0.00 | 0.00 | 0.00 | 48 | 1029.6 |
| 20260505002842 | 73 | 215 | 3.0 | 7.0 | 0.00 | 0.00 | 0.00 | 48 | 1029.4 |
| 20260505001840 | 73 | 232 | 3.0 | 4.0 | 0.00 | 0.00 | 0.00 | 47 | 1029.7 |
| 20260505000859 | 74 | 209 | 5.0 | 8.0 | 0.00 | 0.00 | 0.00 | 46 | 1029.7 |
| 20260504235837 | 74 | 201 | 7.0 | 11.0 | 0.00 | 0.00 | 0.00 | 46 | 1029.7 |
| 20260504234835 | 74 | 267 | 8.0 | 15.0 | 0.00 | 0.00 | 0.00 | 46 | 1030.0 |
| 20260504233834 | 74 | 232 | 6.0 | 11.0 | 0.00 | 0.00 | 0.00 | 46 | 1030.0 |
| 20260504233012 | 75 | 222 | 7.0 | 12.0 | 0.00 | 0.00 | 0.00 | 46 | 1030.0 |
| 20260504231829 | 76 | 235 | 3.0 | 7.0 | 0.00 | 0.00 | 0.00 | 45 | 1030.0 |
| 20260504230827 | 76 | 222 | 10.0 | 12.0 | 0.00 | 0.00 | 0.00 | 45 | 1030.0 |
| 20260504225825 | 76 | 239 | 9.0 | 16.0 | 0.00 | 0.00 | 0.00 | 46 | 1030.4 |
| 20260504224903 | 75 | 232 | 7.0 | 15.0 | 0.00 | 0.00 | 0.00 | 49 | 1030.4 |
| 20260504223821 | 75 | 230 | 2.0 | 4.0 | 0.00 | 0.00 | 0.00 | 48 | 1030.4 |
| 20260504222819 | 76 | 210 | 5.0 | 8.0 | 0.00 | 0.00 | 0.00 | 48 | 1030.4 |
| 20260504221848 | 76 | 223 | 4.0 | 7.0 | 0.00 | 0.00 | 0.00 | 47 | 1030.4 |
| 20260504220845 | 76 | 242 | 3.0 | 4.0 | 0.00 | 0.00 | 0.00 | 46 | 1030.4 |
| 20260504215904 | 76 | 227 | 2.0 | 4.0 | 0.00 | 0.00 | 0.00 | 46 | 1030.4 |
| 20260504214842 | 76 | 217 | 3.0 | 7.0 | 0.00 | 0.00 | 0.00 | 46 | 1031.0 |
| 20260504213839 | 77 | 270 | 3.0 | 4.0 | 0.00 | 0.00 | 0.00 | 46 | 1031.1 |
| 20260504212838 | 78 | 215 | 4.0 | 8.0 | 0.00 | 0.00 | 0.00 | 45 | 1031.1 |
| 20260504211835 | 78 | 229 | 4.0 | 7.0 | 0.00 | 0.00 | 0.00 | 47 | 1031.4 |
| 20260504210835 | 78 | 219 | 3.0 | 5.0 | 0.00 | 0.00 | 0.00 | 47 | 1031.4 |
| 20260504205832 | 77 | 237 | 2.0 | 5.0 | 0.00 | 0.00 | 0.00 | 48 | 1031.4 |
| 20260504204851 | 76 | 233 | 5.0 | 11.0 | 0.00 | 0.00 | 0.00 | 47 | 1031.4 |
| 20260504203828 | 76 | 225 | 4.0 | 11.0 | 0.00 | 0.00 | 0.00 | 48 | 1031.7 |
| 20260504202826 | 75 | 244 | 4.0 | 7.0 | 0.00 | 0.00 | 0.00 | 49 | 1032.2 |
| 20260504201824 | 76 | 228 | 8.0 | 14.0 | 0.00 | 0.00 | 0.00 | 47 | 1031.7 |
| 20260504200822 | 77 | 243 | 8.0 | 15.0 | 0.00 | 0.00 | 0.00 | 47 | 1032.2 |
| 20260504195911 | 76 | 220 | 4.0 | 11.0 | 0.00 | 0.00 | 0.00 | 50 | 1032.2 |
| 20260504194848 | 74 | 216 | 7.0 | 11.0 | 0.00 | 0.00 | 0.00 | 51 | 1032.2 |
| 20260504193847 | 73 | 211 | 3.0 | 8.0 | 0.00 | 0.00 | 0.00 | 50 | 1032.5 |
| 20260504192843 | 71 | 250 | 3.0 | 10.0 | 0.00 | 0.00 | 0.00 | 48 | 1032.8 |
| 20260504191842 | 70 | 204 | 1.0 | 3.0 | 0.00 | 0.00 | 0.00 | 48 | 1033.1 |
| 20260504190850 | 69 | 260 | 1.0 | 3.0 | 0.00 | 0.00 | 0.00 | 47 | 1033.4 |
| 20260504185839 | 69 | 248 | 3.0 | 4.0 | 0.00 | 0.00 | 0.00 | 50 | 1033.5 |
| 20260504184836 | 69 | 195 | 3.0 | 10.0 | 0.00 | 0.00 | 0.00 | 51 | 1033.5 |
| 20260504183835 | 70 | 236 | 6.0 | 11.0 | 0.00 | 0.00 | 0.00 | 51 | 1033.2 |
| 20260504182853 | 71 | 241 | 3.0 | 8.0 | 0.00 | 0.00 | 0.00 | 52 | 1033.2 |
| 20260504181852 | 71 | 201 | 5.0 | 10.0 | 0.00 | 0.00 | 0.00 | 52 | 1033.2 |
| 20260504180828 | 72 | 202 | 8.0 | 16.0 | 0.00 | 0.00 | 0.00 | 51 | 1033.0 |
| 20260504175826 | 72 | 205 | 8.0 | 14.0 | 0.00 | 0.00 | 0.00 | 51 | 1032.6 |
| 20260504174824 | 72 | 228 | 8.0 | 18.0 | 0.00 | 0.00 | 0.00 | 51 | 1032.5 |
| 20260504173853 | 72 | 208 | 7.0 | 16.0 | 0.00 | 0.00 | 0.00 | 51 | 1032.5 |
| 20260504172850 | 71 | 232 | 3.0 | 7.0 | 0.00 | 0.00 | 0.00 | 50 | 1032.8 |
| 20260504171848 | 70 | 227 | 6.0 | 10.0 | 0.00 | 0.00 | 0.00 | 51 | 1032.8 |
| 20260504170846 | 69 | 240 | 4.0 | 8.0 | 0.00 | 0.00 | 0.00 | 51 | 1032.5 |
| 20260504150914 | 66 | 225 | 2.0 | 5.0 | 0.00 | 0.00 | 0.00 | 47 | 1033.5 |
| 20260504140841 | 63 | 241 | 5.0 | 8.0 | 0.00 | 0.00 | 0.00 | 43 | 1033.9 |
| 20260504081833 | 52 | 225 | 4.0 | 8.0 | 0.00 | 0.00 | 0.00 | 51 | 1034.9 |
| 20260504080853 | 52 | 225 | 2.0 | 4.0 | 0.00 | 0.00 | 0.00 | 52 | 1034.9 |
| 20260504045825 | 51 | 229 | 2.0 | 4.0 | 0.00 | 0.00 | 0.00 | 53 | 1036.7 |
| 20260504044822 | 51 | 223 | 2.0 | 4.0 | 0.00 | 0.00 | 0.00 | 54 | 1037.0 |
| 20260504043851 | 51 | 205 | 1.0 | 4.0 | 0.00 | 0.00 | 0.00 | 54 | 1037.0 |
| 20260504042818 | 51 | 203 | 0.0 | 3.0 | 0.00 | 0.00 | 0.00 | 54 | 1037.0 |
| 20260504040845 | 52 | 236 | 0.0 | 1.0 | 0.00 | 0.00 | 0.00 | 54 | 1037.0 |
| 20260504035843 | 53 | 225 | 1.0 | 3.0 | 0.00 | 0.00 | 0.00 | 53 | 1037.2 |
| 20260504034841 | 53 | 248 | 1.0 | 4.0 | 0.00 | 0.00 | 0.00 | 52 | 1037.3 |
| 20260504033909 | 54 | 225 | 1.0 | 3.0 | 0.00 | 0.00 | 0.00 | 52 | 1037.3 |
| 20260504032837 | 54 | 229 | 2.0 | 4.0 | 0.00 | 0.00 | 0.00 | 51 | 1037.5 |
| 20260504031835 | 55 | 225 | 2.0 | 5.0 | 0.00 | 0.00 | 0.00 | 51 | 1037.7 |
| 20260504030834 | 55 | 234 | 2.0 | 3.0 | 0.00 | 0.00 | 0.00 | 50 | 1037.7 |
| 20260504025832 | 56 | 240 | 2.0 | 4.0 | 0.00 | 0.00 | 0.00 | 50 | 1037.7 |
| 20260504024850 | 56 | 238 | 2.0 | 3.0 | 0.00 | 0.00 | 0.00 | 50 | 1037.7 |